User: anonymous   Login
Location: CNYAC Observatory
(43.2150°N, 74.9500°W)
Time: 07:31:28
(UTC-05:00)
Language:

Cosmos 1300 Rocket - Orbit

View from above orbital plane
View from above orbital plane
View from above satellite
View from above satellite

Ground track
Ground track

The orbit data is extracted from the following two-line orbital elements,

1 12786U 81082B   17054.16618403  .00000102  00000-0  92700-5 0  9995
2 12786  82.4860  75.1717 0016010 271.5634  88.3748 14.84667612917895
Epoch (UTC): 23 February 2017 03:59:18
Eccentricity: 0.0016010
inclination: 82.4860°
perigee height: 603 km
apogee height: 626 km
right ascension of ascending node: 75.1717°
argument of perigee: 271.5634°
revolutions per day: 14.84667612
mean anomaly at epoch: 88.3748°
orbit number at epoch: 91789

The dashed part of the orbit path shows where the satellite is in the earth's shadow,  

DLR